Regional Weather Roundup
Issued by NWS

Home | Current Version | Previous Version | Text Only | Print | Product List | Glossary Off
Versions: 1 2 3 4 5 6 7 8 9 10 11 12 13 14 15 16 17 18 19 20 21 22 23 24 25 26 27 28 29 30 31 32 33 34 35 36 37 38 39 40 41 42 43 44 45 46 47 48 49 50

000
ASUS43 KOAX 250710
RWRNE

WEATHER ROUNDUP FOR NEBRASKA
NATIONAL WEATHER SERVICE OMAHA NE
200 AM CDT SUN JUN 25 2017

NOTES: SATELLITE DATA IS BEING USED TO AUGMENT CLOUD COVER ABOVE
       12000 FEET.
       "FAIR" INDICATES FEW OR NO CLOUDS BELOW 12,000 FEET WITH NO
       SIGNIFICANT WEATHER AND/OR OBSTRUCTIONS TO VISIBILITY.

  * THESE STATIONS DO NOT REPORT WEATHER SUCH AS RAIN...SNOW OR FOG.

NEZ001>004-019>022-054>056-250800-
NEBRASKA PANHANDLE

CITY           SKY/WX    TMP DP  RH WIND       PRES   REMARKS
SCOTTSBLUFF    PTCLDY    57  41  55 NE8       30.35R
ALLIANCE       CLOUDY    52  40  63 NE7       30.37R
CHADRON        CLOUDY    57  38  48 NW3       30.36F
GORDON         FAIR      51  42  71 N3        30.37F
KIMBALL        CLEAR     49  41  73 SE5       30.38R
SIDNEY         CLEAR     48  38  68 SE5       30.36R
$$

NEZ057>060-069>072-079>082-250800-
SOUTHWEST NEBRASKA

CITY           SKY/WX    TMP DP  RH WIND       PRES   REMARKS
NORTH PLATTE   CLEAR     47  40  76 CALM      30.30S
IMPERIAL       CLEAR     51  44  77 CALM      30.33R
LEXINGTON      CLEAR     49  43  81 N6        30.30S
MCCOOK         CLEAR     57  50  77 CALM      30.30S
OGALLALA       CLEAR     50  36  60 CALM      30.32F
$$

NEZ005>010-023>029-035>040-094-250800-
NORTH CENTRAL NEBRASKA

CITY           SKY/WX    TMP DP  RH WIND       PRES   REMARKS
VALENTINE      PTCLDY    49  32  52 NW3       30.35R
AINSWORTH      CLEAR     52  37  56 CALM      30.34R
BROKEN BOW     CLOUDY    54  43  66 NE3       30.29F
O`NEILL        PTCLDY    50  40  68 N6        30.31R
ORD            PTCLDY    47  38  71 NW6       30.29R
THEDFORD       PTCLDY    52  37  56 CALM      30.35R
$$

NEZ041-046>049-061>064-073>077-083>087-250800-
SOUTH CENTRAL NEBRASKA

CITY           SKY/WX    TMP DP  RH WIND       PRES   REMARKS
GRAND ISLAND   PTCLDY    53  44  71 W6        30.28R
AURORA         PTCLDY    52  44  75 CALM      30.27S
HASTINGS       PTCLDY    53  44  71 W5        30.29R
HEBRON         CLEAR     54  49  84 CALM      30.25S
HOLDREGE       CLEAR     53  43  70 CALM      30.29R
KEARNEY *      PTCLDY    55  41  58 NW5       30.30R
YORK           CLEAR     52  45  76 CALM      30.26S
$$

NEZ011>018-030>034-042>045-250800-
NORTHEAST NEBRASKA

CITY           SKY/WX    TMP DP  RH WIND       PRES   REMARKS
NORFOLK        CLEAR     51  39  63 N7        30.27R
ALBION         CLEAR     49  39  69 CALM      30.29R
BLAIR          PTCLDY    59  41  51 N8        30.23S
FREMONT        PTCLDY    55  41  60 CALM      30.25S
TEKAMAH        CLEAR     56  40  55 NW9       30.23R
WAYNE          CLEAR     49  41  73 CALM      30.27S
$$

NEZ050>053-065>068-078-088>093-250800-
SOUTHEAST NEBRASKA

CITY           SKY/WX    TMP DP  RH WIND       PRES   REMARKS
LINCOLN        PTCLDY    54  45  71 N6        30.26R
OMAHA EPPLEY   PTCLDY    57  45  64 N5        30.23R
BEATRICE       PTCLDY    56  50  82 W3        30.24S
FALLS CITY     PTCLDY    56  47  71 NW7       30.20R
NEBRASKA CITY  CLEAR     61  46  57 N8        30.23R
PLATTSMOUTH    CLEAR     60  43  54 N3        30.23R
$$

NEZ044-045-051>053-067-250800-
OMAHA AREA

CITY           SKY/WX    TMP DP  RH WIND       PRES   REMARKS
OMAHA EPPLEY   PTCLDY    57  45  64 N5        30.23R
BLAIR          PTCLDY    59  41  51 N8        30.23S
FREMONT        PTCLDY    55  41  60 CALM      30.25S
MILLARD        PTCLDY    63  43  47 N3        30.23R
OFFUTT AFB     PTCLDY    60  42  52 N3        30.22R
PLATTSMOUTH    CLEAR     60  43  54 N3        30.23R
WAHOO          FAIR      54  41  61 N7        30.24S
$$




USA.gov is the U.S. government's official web portal to all federal, state and local government web resources and services.